Temperature
26 26 26 26 26 26 25 25 24 25 25 26 26 26 27 27 26 26 25 24 23 22 21 20 20 19 19 18 18 17 16 16 16 16 16 16 16 16 15 15 15 15 15 15
25 26 26 26 26 26 26 26 25 25 25 26 26 26 26 26 26 25 25 24 23 23 22 21 20 19 19 19 18 17 17 16 16 16 16 16 16 16 15 15 15 15 15 15
24 25 25 25 26 26 26 26 25 24 24 25 25 25 25 25 24 24 24 24 24 23 22 21 21 20 19 19 18 17 17 17 16 16 16 16 16 15 15 15 15 15 15 15
23 23 22 25 27 27 26 25 25 25 24 24 24 24 24 24 23 23 24 23 23 23 22 22 21 21 20 19 19 18 17 17 17 17 16 16 16 16 16 15 15 15 15 15
23 22 23 25 26 26 25 24 24 24 24 23 23 24 24 22 22 22 23 23 23 23 22 22 22 21 20 20 19 18 18 17 17 17 16 16 16 16 16 15 15 15 15 15
22 22 22 24 25 25 25 23 23 23 22 22 22 21 21 21 21 21 22 22 22 22 22 22 22 22 21 20 20 19 18 18 17 17 17 16 16 16 16 15 15 15 15 14
22 22 23 23 24 24 22 21 21 21 21 21 20 20 20 20 20 20 21 21 22 22 22 22 22 22 21 21 20 20 19 18 18 17 17 17 16 16 16 15 15 15 14 14
22 21 22 22 22 21 20 21 20 19 19 19 19 19 19 19 19 20 20 20 21 21 21 21 21 21 21 21 21 20 19 19 18 17 17 17 16 16 16 15 15 14 14 14
22 22 22 21 21 20 19 19 19 18 18 18 18 18 18 18 18 19 19 19 20 20 20 21 21 21 21 21 21 20 19 19 18 17 17 17 16 16 16 15 15 14 13 13
21 22 22 21 20 19 18 18 18 17 17 17 17 17 17 17 17 17 18 18 19 19 19 20 20 20 20 20 20 20 19 18 18 17 17 16 16 16 15 15 14 14 13 13
19 20 20 20 18 18 17 17 16 16 16 16 16 16 16 16 16 16 16 17 17 18 18 19 19 19 19 20 20 19 19 18 17 17 17 16 16 15 15 15 15 14 13 13
18 19 18 18 17 16 16 15 15 15 15 15 15 15 15 15 15 15 15 15 16 17 17 18 18 19 19 19 19 19 18 18 17 17 16 16 16 15 15 15 14 14 13 13
18 17 16 16 15 15 15 14 14 14 14 14 14 14 14 14 14 14 14 14 15 15 16 17 17 18 18 18 18 18 18 17 17 16 16 16 16 16 15 14 14 13 13 12
16 15 15 15 14 14 14 13 13 13 13 13 13 13 13 13 13 13 13 13 13 14 15 15 16 17 18 18 18 18 17 17 17 17 16 16 16 16 15 15 14 13 12 12
15 14 14 14 13 13 13 12 12 12 12 12 12 12 12 11 11 11 12 12 12 13 13 14 15 16 17 17 17 17 17 17 16 16 16 16 15 15 14 14 13 13 12 11
14 13 13 13 13 12 12 12 11 11 11 11 11 11 11 11 11 11 11 11 11 12 12 13 14 15 16 16 16 16 16 16 16 16 15 15 14 14 13 13 13 12 12 11
13 13 12 12 12 11 11 11 11 11 11 10 10 10 10 10 10 10 10 10 11 11 11 12 13 14 14 15 15 15 15 15 15 15 15 14 14 14 13 12 12 11 11 11
12 12 11 11 11 10 10 10 10 10 10 10 10 10 10 10 10 10 10 10 10 10 11 11 12 13 13 14 14 14 15 14 14 14 14 14 13 13 12 12 11 11 10 9
11 11 10 10 10 10 10 10 9 9 9 9 9 9 9 9 9 9 9 9 9 9 10 10 11 11 12 13 13 14 14 14 13 13 13 13 13 12 12 11 11 10 10 9
10 10 10 9 9 9 9 9 9 9 9 9 9 9 9 8 8 8 8 8 9 9 9 9 10 10 11 11 12 13 13 13 12 12 12 12 12 11 11 11 10 10 9 9
9 9 9 9 9 9 9 9 9 9 9 9 8 8 8 8 8 8 8 8 8 8 8 9 9 9 10 10 11 11 12 12 12 11 11 11 11 11 10 10 9 9 8 8
9 9 9 9 9 8 8 8 8 8 8 8 8 8 8 7 7 7 7 7 7 7 7 8 8 8 9 9 10 10 11 11 11 11 11 11 10 10 10 9 9 8 8 8
8 8 8 8 8 8 8 8 8 8 8 8 8 7 7 7 7 6 6 7 6 6 6 7 7 7 8 8 9 9 10 10 10 10 10 10 10 10 9 9 8 8 8 7
8 8 8 8 8 8 8 8 8 8 7 7 7 7 7 6 6 6 6 6 6 6 6 6 6 7 7 7 8 8 9 9 10 10 9 9 9 9 9 8 8 8 7 7
8 8 8 7 7 7 7 7 7 7 7 7 7 6 6 6 6 6 5 5 5 5 5 5 6 6 6 7 7 7 8 9 9 9 9 8 8 8 8 8 7 7 6 6
7 7 7 7 7 7 7 7 7 7 7 6 6 6 6 6 5 5 5 5 5 4 4 5 5 5 5 6 6 7 7 8 8 8 8 8 7 7 7 7 6 6 6 5
7 7 7 7 7 7 7 7 7 6 6 6 6 6 5 5 5 5 4 4 4 4 4 4 4 4 5 5 5 6 6 7 7 7 7 7 6 6 6 6 6 5 5 4
Wind_Speed
13 11 10 12 12 11 11 12 13 14 12 10 9 9 7 5 3 3 4 7 9 10 10 10 11 11 11 11 10 10 10 8 7 6 6 5 4 4 2 2 3 3 2 2
15 15 14 15 14 14 14 13 12 12 10 8 8 8 9 8 6 4 3 4 7 10 11 12 12 11 10 11 11 10 10 9 8 7 6 6 6 6 5 4 3 2 3 2
14 15 15 14 14 11 7 6 7 8 7 9 10 10 9 7 7 6 4 3 5 8 10 11 13 13 12 11 12 11 10 10 9 8 7 7 6 5 5 4 4 3 3 2
12 14 14 9 6 4 2 4 5 5 8 9 10 10 5 7 8 8 6 4 3 5 8 9 11 13 12 11 12 12 11 10 10 9 8 7 6 5 5 5 5 5 5 4
10 13 12 10 8 7 4 3 8 8 10 12 12 10 7 15 12 10 8 5 3 4 6 8 10 12 13 12 12 12 11 10 10 10 8 8 7 6 5 4 4 4 4 5
9 12 13 7 9 8 5 1 10 10 11 13 13 9 10 15 14 12 11 8 3 2 4 7 8 9 12 12 12 12 11 10 10 10 9 8 7 6 4 4 3 3 3 4
11 13 9 7 8 7 3 5 10 11 11 12 10 10 12 14 13 12 10 9 6 3 3 4 6 8 10 11 12 11 11 10 10 9 9 8 7 5 4 3 3 3 3 3
9 11 4 10 7 6 7 8 10 11 12 12 12 13 13 13 13 13 11 9 7 5 4 2 4 6 8 9 10 11 11 10 10 9 8 8 7 5 4 4 4 3 2 1
6 6 4 5 5 5 7 9 10 10 11 12 13 13 14 13 12 12 12 10 8 6 5 3 3 5 7 7 8 11 12 11 10 9 7 7 8 6 5 4 4 3 3 2
10 9 10 9 7 7 7 9 9 10 12 13 13 14 14 13 12 11 12 11 9 7 6 5 4 5 5 5 9 12 12 11 10 9 8 7 6 5 4 4 3 3 3 2
16 14 13 8 9 11 12 11 12 12 12 13 13 14 13 12 11 11 11 11 10 8 7 7 5 5 6 6 9 11 11 11 10 9 9 8 5 4 4 3 3 3 3 3
14 12 11 11 13 14 13 13 13 13 13 13 13 13 13 12 10 11 12 12 12 10 9 8 7 6 6 7 9 11 11 11 9 9 9 9 9 7 11 8 10 11 10 8
13 11 10 12 13 13 13 14 14 14 14 14 12 12 12 11 10 11 12 13 13 13 12 11 9 7 6 7 9 11 10 10 9 10 10 10 10 10 8 6 8 10 10 11
11 11 12 11 11 11 12 13 13 13 13 13 12 12 12 12 12 12 13 13 13 14 13 12 10 8 6 7 9 10 10 11 11 10 10 11 11 10 10 10 7 4 5 8
10 9 10 10 10 11 11 11 12 12 12 12 12 11 12 12 13 13 14 14 13 13 14 12 12 10 7 7 8 10 9 8 9 10 10 10 10 11 10 11 9 8 6 5
8 9 9 10 10 10 11 12 12 12 13 13 12 12 13 13 13 13 13 13 13 14 13 13 12 11 8 7 7 8 8 12 12 10 10 10 10 11 11 11 10 10 9 8
9 9 9 9 10 11 11 12 12 13 13 14 13 13 14 14 13 13 13 13 14 14 14 14 13 11 9 7 7 6 7 10 14 11 10 10 10 10 10 10 10 9 9 10
7 7 8 9 10 12 12 13 13 14 14 14 14 14 14 14 14 13 14 14 15 15 13 13 12 11 10 8 7 6 7 8 9 9 9 9 10 10 10 10 10 10 8 8
5 7 9 11 11 12 13 13 14 14 15 15 14 14 14 14 14 14 14 14 15 15 13 12 14 13 11 9 8 6 7 8 9 8 8 11 11 9 10 10 10 10 10 9
8 9 11 12 13 14 13 13 15 15 14 14 14 14 14 14 15 15 14 14 12 11 13 14 13 12 10 9 8 6 8 9 10 9 9 10 10 10 10 10 11 11 10 10
10 11 13 14 14 15 15 16 15 15 14 13 14 14 15 14 14 14 13 13 12 12 12 14 12 10 8 8 7 6 7 8 9 10 10 10 10 10 10 10 10 10 10 9
11 12 14 15 15 16 16 16 16 16 15 14 14 14 14 14 14 14 13 11 12 14 12 10 10 11 11 10 7 6 7 8 8 9 9 10 10 11 11 11 10 9 9 9
13 14 15 16 17 17 17 16 16 16 14 14 14 14 14 13 11 12 13 10 9 14 12 11 14 15 14 9 7 7 7 8 8 9 9 9 10 10 10 11 10 9 9 9
15 15 16 16 17 18 18 16 14 12 13 13 12 12 13 12 11 10 10 12 13 15 12 13 17 15 12 8 7 7 7 7 8 8 9 9 9 9 9 9 9 9 9 10
15 16 17 16 15 13 14 14 14 13 12 10 12 12 11 9 10 9 9 10 13 14 11 13 14 12 8 6 6 6 6 6 7 8 8 9 9 9 10 10 9 9 9 9
14 13 12 14 13 11 11 11 11 10 10 10 9 9 9 8 9 8 8 10 12 13 10 8 6 6 5 5 5 4 4 6 8 8 9 9 10 10 10 10 12 9 9 8
14 13 10 10 10 10 9 9 9 9 9 9 10 9 9 9 8 8 9 8 8 7 6 5 5 5 4 3 3 3 4 5 7 8 9 9 9 9 10 11 9 9 8 8
Wind_Direction
304 303 287 281 277 271 266 269 276 285 294 310 320 321 323 316 293 249 209 186 184 181 184 185 182 190 187 181 174 173 174 191 200 193 182 181 167 157 187 216 204 203 250 273
295 294 291 286 278 269 267 271 277 286 295 318 330 339 341 340 331 302 262 208 193 189 190 189 186 190 192 175 172 172 177 186 190 196 182 177 180 178 192 214 234 212 220 240
297 302 298 286 283 280 280 304 314 314 334 350 350 345 341 345 338 324 306 263 209 197 198 195 189 189 196 182 174 178 182 184 183 192 186 179 186 185 192 206 224 231 234 245
289 294 285 291 314 332 332 333 358 350 3 5 351 328 351 15 355 334 322 295 240 205 196 196 191 185 190 179 174 180 186 185 179 182 183 179 182 188 197 205 213 216 221 223
273 277 280 293 328 332 316 20 27 19 12 3 351 333 21 15 1 346 329 310 271 228 205 200 199 187 184 182 181 183 186 182 176 175 177 178 185 196 201 202 210 208 203 207
269 278 283 322 2 355 324 23 35 28 17 5 3 359 357 355 351 346 340 330 313 269 223 202 200 186 184 185 182 184 181 175 171 171 172 177 182 190 189 183 193 202 217 207
263 271 278 7 4 344 319 28 27 22 14 5 1 351 342 345 346 342 338 333 334 307 265 214 193 183 188 186 183 177 167 164 165 166 166 167 171 171 167 167 179 208 226 209
276 274 293 34 23 28 18 17 18 13 5 355 346 341 341 343 341 340 338 337 335 321 298 256 200 191 195 196 178 159 155 158 160 161 166 161 153 159 162 163 175 200 218 222
297 314 10 50 49 43 15 358 0 358 350 343 337 336 336 336 336 337 336 335 329 315 300 278 234 209 207 197 161 150 152 155 156 155 155 150 152 160 166 170 179 190 185 177
299 299 320 337 0 18 8 349 345 346 341 337 332 330 329 329 330 334 334 330 323 311 297 281 256 231 219 189 160 154 157 160 161 161 155 150 150 159 160 163 172 171 152 139
296 299 307 325 356 352 348 343 338 337 333 330 326 322 322 322 326 328 326 324 319 310 296 285 267 238 219 193 170 165 165 168 169 166 159 151 125 94 123 85 110 130 119 109
282 302 309 318 336 337 337 334 331 329 325 323 319 317 319 320 323 322 322 322 319 313 305 294 281 254 224 198 180 174 175 176 173 166 158 149 134 100 66 95 93 90 96 110
291 304 310 316 320 326 326 322 322 321 318 316 316 320 321 320 320 320 320 320 318 314 307 298 285 269 231 199 188 185 183 178 172 168 165 159 155 150 137 95 83 92 102 110
299 305 301 307 313 318 316 317 317 314 314 317 321 323 321 319 318 318 317 316 313 311 306 301 292 278 250 208 195 195 189 182 174 171 168 167 165 162 159 156 152 137 121 131
284 293 298 306 305 306 312 313 313 313 317 319 322 320 319 319 316 313 312 310 308 305 304 302 298 287 268 225 204 200 193 182 176 172 169 168 164 162 162 163 159 154 149 155
295 298 296 296 299 306 311 313 314 314 315 315 316 318 318 314 309 305 305 308 307 304 303 300 294 291 278 239 212 203 197 187 176 171 170 169 168 167 166 165 161 162 166 168
284 285 290 296 302 305 306 308 308 308 309 310 312 313 311 307 305 305 307 306 304 301 300 296 291 291 284 255 221 206 192 186 179 176 176 175 173 171 168 165 165 164 163 164
277 291 301 303 305 306 306 305 304 305 305 306 307 305 304 304 304 303 305 306 305 300 297 296 292 292 288 269 233 211 197 186 186 183 177 175 173 170 165 164 162 153 146 153
285 291 294 295 297 299 299 301 302 301 301 301 301 301 301 301 301 301 302 302 302 300 298 299 297 294 287 270 241 209 197 188 187 184 176 172 171 167 164 162 158 154 153 156
278 283 288 291 293 295 297 298 299 297 296 297 298 298 298 298 300 299 297 293 290 293 298 301 298 291 282 270 244 216 198 191 187 184 179 175 173 168 165 162 160 158 158 160
280 283 286 288 291 293 294 294 294 292 294 295 294 294 294 295 296 296 294 292 292 296 298 297 292 282 274 270 250 229 207 196 189 186 182 177 173 167 165 163 161 160 159 158
283 285 286 288 289 290 291 292 293 294 294 292 292 293 294 293 294 293 287 286 291 294 296 291 287 282 280 277 256 235 215 201 191 185 179 175 171 167 166 162 161 159 154 151
282 284 286 288 289 291 292 290 290 290 289 290 291 291 291 289 288 288 289 289 292 295 295 287 285 280 274 270 254 234 216 201 188 180 175 171 168 164 161 157 154 149 145 142
283 285 286 287 289 289 289 289 289 290 289 289 287 287 287 287 284 281 284 291 293 292 288 284 283 272 262 258 249 232 216 198 182 173 169 163 158 154 151 148 143 140 137 133
284 285 285 288 288 288 288 291 293 291 288 285 285 287 286 283 283 287 288 293 295 291 287 284 279 265 256 252 242 227 209 186 169 162 160 154 149 145 142 139 136 133 131 130
284 285 284 283 283 282 284 285 284 284 285 285 285 286 286 285 285 285 286 289 286 286 287 281 271 255 255 248 225 205 188 168 155 150 145 141 137 135 134 132 128 128 128 127
283 281 279 277 277 276 278 281 283 285 287 287 289 291 291 291 289 287 287 288 283 279 282 276 267 256 254 242 213 184 166 152 141 136 134 131 130 130 130 127 126 124 125 127
Height
1466 1463 1463 1464 1465 1464 1467 1468 1473 1469 1464 1458 1454 1453 1451 1451 1451 1452 1453 1454 1456 1459 1461 1464 1467 1469 1472 1474 1477 1479 1481 1483 1485 1488 1489 1491 1492 1492 1493 1494 1495 1495 1495 1496
1470 1463 1460 1461 1458 1457 1459 1459 1460 1460 1459 1453 1452 1452 1451 1450 1450 1450 1450 1451 1453 1455 1457 1460 1462 1465 1468 1470 1472 1475 1478 1480 1482 1485 1486 1488 1489 1490 1491 1492 1493 1493 1494 1494
1477 1466 1464 1467 1455 1452 1452 1452 1456 1461 1459 1453 1453 1452 1452 1451 1450 1450 1449 1449 1449 1451 1452 1455 1457 1460 1463 1466 1469 1471 1474 1476 1479 1481 1483 1485 1486 1487 1488 1489 1490 1490 1491 1491
1477 1475 1483 1461 1445 1446 1451 1453 1453 1455 1455 1455 1455 1453 1453 1452 1451 1449 1448 1446 1446 1447 1448 1451 1453 1456 1459 1463 1465 1467 1470 1473 1475 1477 1480 1482 1483 1484 1485 1486 1487 1487 1488 1488
1477 1479 1470 1455 1448 1448 1451 1456 1456 1457 1458 1457 1455 1452 1452 1452 1451 1449 1447 1445 1444 1444 1445 1447 1449 1452 1455 1458 1461 1463 1466 1469 1471 1473 1476 1478 1479 1481 1482 1483 1484 1484 1484 1484
1474 1480 1479 1463 1452 1449 1452 1461 1460 1460 1461 1461 1458 1458 1457 1454 1452 1449 1446 1444 1442 1441 1442 1444 1446 1448 1451 1453 1456 1459 1461 1464 1467 1469 1472 1474 1475 1477 1479 1479 1480 1481 1481 1481
1474 1475 1465 1459 1455 1453 1465 1471 1465 1464 1465 1465 1464 1464 1461 1457 1453 1450 1446 1443 1441 1440 1440 1441 1442 1445 1447 1449 1451 1454 1457 1460 1463 1466 1468 1470 1472 1473 1475 1476 1476 1477 1477 1478
1468 1472 1471 1462 1460 1465 1470 1467 1467 1467 1467 1467 1465 1463 1460 1457 1454 1450 1446 1443 1441 1439 1439 1439 1440 1441 1443 1445 1448 1450 1453 1456 1459 1461 1464 1466 1468 1469 1471 1472 1473 1473 1474 1474
1466 1467 1463 1463 1465 1468 1468 1468 1468 1468 1468 1467 1465 1462 1460 1457 1453 1450 1447 1444 1441 1439 1438 1437 1437 1439 1440 1442 1444 1445 1448 1451 1454 1457 1459 1461 1463 1465 1466 1467 1468 1469 1470 1471
1464 1461 1461 1463 1465 1466 1467 1468 1468 1468 1467 1466 1464 1461 1458 1456 1452 1449 1446 1443 1440 1438 1436 1435 1435 1436 1437 1438 1440 1441 1443 1446 1449 1452 1454 1456 1459 1460 1462 1463 1464 1465 1466 1467
1467 1464 1463 1463 1465 1466 1466 1466 1466 1466 1465 1464 1462 1459 1457 1453 1451 1448 1444 1441 1439 1436 1434 1433 1432 1432 1433 1434 1435 1436 1438 1440 1443 1446 1448 1451 1453 1455 1456 1458 1459 1461 1461 1462
1467 1465 1466 1465 1465 1465 1465 1465 1465 1464 1462 1461 1459 1456 1453 1451 1448 1445 1442 1439 1436 1433 1431 1429 1428 1427 1427 1429 1430 1431 1432 1435 1437 1440 1442 1445 1447 1449 1451 1454 1455 1456 1457 1458
1464 1463 1464 1464 1464 1464 1464 1463 1462 1461 1459 1457 1455 1453 1450 1447 1444 1442 1439 1435 1432 1429 1427 1425 1423 1422 1422 1422 1424 1425 1426 1429 1431 1433 1435 1438 1440 1443 1445 1448 1450 1452 1453 1454
1462 1461 1461 1461 1462 1461 1461 1460 1459 1458 1456 1454 1451 1449 1446 1444 1441 1438 1435 1431 1428 1425 1422 1420 1418 1416 1416 1416 1417 1419 1421 1423 1424 1426 1428 1431 1434 1437 1440 1442 1444 1446 1449 1450
1458 1458 1458 1458 1458 1458 1458 1457 1456 1454 1452 1450 1448 1445 1443 1440 1437 1433 1430 1427 1423 1420 1417 1414 1412 1410 1410 1410 1410 1412 1414 1416 1418 1420 1422 1425 1428 1430 1433 1436 1439 1441 1444 1446
1454 1455 1455 1455 1455 1455 1454 1453 1452 1450 1448 1446 1444 1441 1438 1435 1432 1428 1425 1422 1418 1414 1411 1408 1406 1404 1404 1404 1403 1405 1407 1409 1411 1413 1416 1419 1421 1424 1427 1430 1433 1435 1438 1441
1451 1452 1452 1452 1452 1452 1451 1450 1449 1446 1444 1442 1439 1436 1433 1430 1426 1423 1419 1416 1413 1409 1406 1403 1400 1398 1397 1397 1397 1397 1400 1402 1404 1406 1409 1411 1414 1417 1420 1424 1427 1430 1433 1436
1448 1449 1450 1450 1449 1448 1447 1446 1444 1442 1439 1436 1433 1430 1427 1424 1420 1416 1413 1409 1405 1402 1399 1396 1394 1391 1390 1389 1390 1390 1392 1394 1396 1399 1402 1405 1408 1411 1414 1418 1421 1424 1428 1431
1445 1446 1447 1446 1446 1444 1442 1441 1438 1436 1433 1431 1428 1424 1421 1417 1414 1410 1407 1403 1399 1395 1391 1389 1387 1384 1382 1381 1382 1383 1384 1387 1389 1392 1395 1399 1402 1405 1408 1412 1415 1419 1422 1426
1442 1443 1442 1442 1441 1439 1437 1435 1432 1429 1427 1424 1421 1417 1413 1410 1407 1403 1400 1395 1392 1389 1386 1382 1379 1377 1375 1374 1375 1375 1377 1379 1382 1385 1389 1392 1395 1399 1402 1406 1410 1413 1417 1421
1438 1438 1437 1436 1435 1433 1431 1428 1426 1422 1419 1417 1413 1410 1406 1402 1399 1396 1392 1387 1383 1381 1378 1374 1372 1369 1368 1368 1368 1369 1370 1373 1375 1378 1381 1385 1389 1393 1396 1400 1404 1408 1412 1416
1433 1432 1431 1429 1428 1425 1423 1421 1418 1415 1411 1408 1405 1402 1398 1394 1391 1387 1383 1380 1376 1373 1370 1366 1364 1362 1361 1360 1361 1361 1364 1366 1368 1371 1374 1378 1382 1386 1390 1395 1399 1403 1407 1411
1427 1426 1424 1422 1420 1417 1415 1412 1410 1407 1403 1400 1396 1393 1390 1386 1383 1379 1373 1371 1368 1364 1361 1358 1355 1354 1353 1353 1353 1354 1356 1359 1362 1365 1368 1372 1376 1381 1385 1390 1394 1398 1403 1407
1420 1419 1417 1415 1412 1409 1406 1403 1401 1398 1395 1391 1388 1385 1381 1377 1373 1370 1366 1362 1359 1355 1352 1348 1346 1345 1345 1345 1346 1347 1350 1352 1356 1359 1363 1367 1372 1376 1381 1385 1389 1394 1398 1402
1413 1411 1409 1407 1404 1401 1398 1395 1392 1390 1386 1383 1380 1376 1373 1370 1365 1361 1357 1353 1350 1346 1342 1339 1337 1337 1337 1337 1339 1341 1343 1346 1350 1354 1358 1362 1367 1372 1376 1381 1385 1390 1394 1398
1405 1403 1401 1399 1396 1394 1391 1388 1385 1382 1379 1375 1371 1368 1365 1361 1357 1353 1349 1345 1341 1337 1334 1331 1330 1329 1330 1331 1332 1335 1338 1341 1345 1350 1354 1359 1363 1368 1373 1378 1382 1386 1391 1394
1398 1395 1393 1390 1388 1386 1384 1381 1378 1375 1372 1368 1364 1360 1357 1353 1349 1345 1341 1337 1333 1330 1327 1325 1324 1324 1324 1325 1327 1330 1333 1337 1341 1346 1351 1356 1361 1365 1370 1375 1379 1384 1388 1392